Weather History for Heraklion, Greece

Change the Weather History Date:

Wednesday, April 10, 2013

  Actual Average Record
Temperature  
Mean Temperature 59 °F -  
Max Temperature 67 °F 70 °F 86 °F (1998)
Min Temperature 51 °F 56 °F 41 °F (1997)
Degree Days  
Heating Degree Days 6    
Growing Degree Days 9 (Base 50)    
Moisture  
Dew Point 52 °F    
Average Humidity 73    
Maximum Humidity 88    
Minimum Humidity 52    
Precipitation  
Precipitation 0.00 in 0.03 in - ()
Sea Level Pressure  
Sea Level Pressure 30.00 in    
Wind  
Wind Speed 5 mph ()    
Max Wind Speed 9 mph    
Max Gust Speed -    
Visibility 6.6 miles    
Events      
Averages and records for this station are not official NWS values.
T = Trace of Precipitation, MM = Missing Value Source: Averaged Metar Reports

Daily Weather History Graph

Daily Weather History Graph

Search for Another Location

Airport:

Trip Planner

Search our weather history database for the weather conditions in past years. The results will help you decide how hot, cold, wet, or windy it might be!

Date:

Astronomy

Apr. 10, 2013 Rise Set
Actual Time 6:53 AM EEST 7:48 PM EEST
Civil Twilight 6:27 AM EEST 8:14 PM EEST
Nautical Twilight 5:57 AM EEST 8:44 PM EEST
Astronomical Twilight 5:25 AM EEST 9:16 PM EEST
Moon 6:39 AM EEST (4/10) 8:03 PM EEST (4/10)
Length of Visible Light 13h 46m
Length of Day
12h 54m
Waning Crescent, 0% of the Moon is Illuminated
Apr 10
Waning Crescent
Apr 10
New
Apr 18
First Quarter
Apr 25
Full
May 2
Last Quarter

Hourly Weather History & Observations

Time (EEST) Temp. Dew Point Humidity Pressure Visibility Wind Dir Wind Speed Gust Speed Precip Events Conditions
12:20 AM 55.4 °F 48.2 °F 77% 30.04 in 6.2 mi Variable 3.5 mph - N/A   Partly Cloudy
12:50 AM 55.4 °F 48.2 °F 77% 30.04 in 6.2 mi Variable 3.5 mph - N/A   Partly Cloudy
1:20 AM 55.4 °F 48.2 °F 77% 30.04 in 6.2 mi Variable 3.5 mph - N/A   Partly Cloudy
1:50 AM 55.4 °F 48.2 °F 77% 30.04 in 6.2 mi Variable 3.5 mph - N/A   Partly Cloudy
3:00 AM 55 °F 47 °F 68% 30.04 in 9 mi 3.5 mph - -   Scattered Clouds
3:20 AM 55.4 °F 48.2 °F 77% 29.98 in 6.2 mi South 8.1 mph - N/A   Partly Cloudy
3:50 AM 55.4 °F 46.4 °F 72% 30.04 in 6.2 mi South 4.6 mph - N/A   Partly Cloudy
5:20 AM 53.6 °F 48.2 °F 82% 30.01 in 6.2 mi South 8.1 mph - N/A   Partly Cloudy
5:50 AM 51.8 °F 46.4 °F 82% 30.01 in 6.2 mi South 8.1 mph - N/A   Partly Cloudy
6:20 AM 51.8 °F 46.4 °F 82% 30.01 in 6.2 mi South 8.1 mph - N/A   Partly Cloudy
6:50 AM 51.8 °F 46.4 °F 82% 30.01 in 6.2 mi South 8.1 mph - N/A   Scattered Clouds
7:20 AM 51.8 °F 46.4 °F 82% 30.01 in 6.2 mi South 8.1 mph - N/A   Scattered Clouds
7:50 AM 53.6 °F 46.4 °F 77% 30.01 in 6.2 mi South 9.2 mph - N/A   Scattered Clouds
8:20 AM 53.6 °F 46.4 °F 77% 30.01 in 6.2 mi South 9.2 mph - N/A   Scattered Clouds
8:50 AM 59.0 °F 46.4 °F 63% 30.01 in 6.2 mi SSE 5.8 mph - N/A   Partly Cloudy
9:00 AM 60 °F 47 °F 52% 30.01 in 12 mi SSE 5.8 mph - -   Scattered Clouds
9:20 AM 59.0 °F 46.4 °F 63% 30.01 in 6.2 mi SSE 3.5 mph - N/A   Partly Cloudy
9:50 AM 62.6 °F 48.2 °F 59% 30.01 in 6.2 mi Variable 3.5 mph - N/A   Partly Cloudy
10:20 AM 62.6 °F 48.2 °F 59% 30.01 in 6.2 mi NE 4.6 mph - N/A   Partly Cloudy
10:50 AM 64.4 °F 51.8 °F 64% 30.01 in 6.2 mi NE 3.5 mph - N/A   Partly Cloudy
11:20 AM 64.4 °F 51.8 °F 64% 30.01 in 6.2 mi NNE 3.5 mph - N/A   Partly Cloudy
11:50 AM 66.2 °F 51.8 °F 60% 30.04 in 6.2 mi NNE 5.8 mph - N/A   Partly Cloudy
12:20 PM 66.2 °F 51.8 °F 60% 30.04 in 6.2 mi East 5.8 mph - N/A   Partly Cloudy
12:50 PM 66.2 °F 51.8 °F 60% 30.04 in 6.2 mi NNE 5.8 mph - N/A   Partly Cloudy
1:20 PM 66.2 °F 50.0 °F 56% 30.01 in 6.2 mi NE 4.6 mph - N/A   Partly Cloudy
1:50 PM 68.0 °F 53.6 °F 60% 29.98 in 6.2 mi North 5.8 mph - N/A   Partly Cloudy
2:20 PM 68.0 °F 53.6 °F 60% 29.98 in 6.2 mi NNE 5.8 mph - N/A   Partly Cloudy
2:50 PM 68.0 °F 55.4 °F 64% 29.98 in 6.2 mi NNE 6.9 mph - N/A   Scattered Clouds
3:00 PM 67 °F 55 °F 57% 30.00 in 12 mi NNE 6.9 mph - -   Scattered Clouds
3:20 PM 68.0 °F 55.4 °F 64% 29.98 in 6.2 mi North 8.1 mph - N/A   Scattered Clouds
3:50 PM 66.2 °F 55.4 °F 68% 29.98 in 6.2 mi North 6.9 mph - N/A   Scattered Clouds
4:20 PM 66.2 °F 55.4 °F 68% 29.98 in 6.2 mi North 5.8 mph - N/A   Scattered Clouds
4:50 PM 66.2 °F 57.2 °F 73% 29.98 in 6.2 mi North 4.6 mph - N/A   Scattered Clouds
5:20 PM 66.2 °F 57.2 °F 73% 29.98 in 6.2 mi North 4.6 mph - N/A   Scattered Clouds
5:50 PM 64.4 °F 57.2 °F 77% 29.98 in 6.2 mi North 4.6 mph - N/A   Scattered Clouds
6:20 PM 64.4 °F 57.2 °F 77% 29.98 in 6.2 mi North 3.5 mph - N/A   Mostly Cloudy
6:50 PM 62.6 °F 57.2 °F 82% 29.98 in 6.2 mi North 3.5 mph - N/A   Mostly Cloudy
7:20 PM 62.6 °F 57.2 °F 82% 29.98 in 6.2 mi Variable 3.5 mph - N/A   Mostly Cloudy
7:50 PM 60.8 °F 57.2 °F 88% 29.98 in 6.2 mi Calm Calm - N/A   Mostly Cloudy
8:20 PM 60.8 °F 57.2 °F 88% 29.98 in 6.2 mi Calm Calm - N/A   Mostly Cloudy
8:50 PM 59.0 °F 55.4 °F 88% 29.98 in 6.2 mi Calm Calm - N/A   Mostly Cloudy
9:00 PM 60 °F 54 °F 76% 29.98 in 9 mi Calm Calm - -   Scattered Clouds
9:20 PM 59.0 °F 55.4 °F 88% 29.98 in 6.2 mi Calm Calm - N/A   Mostly Cloudy
9:50 PM 59.0 °F 53.6 °F 82% 29.98 in 6.2 mi SSW 3.5 mph - N/A   Mostly Cloudy
10:20 PM 59.0 °F 53.6 °F 82% 29.98 in 6.2 mi SSW 3.5 mph - N/A   Mostly Cloudy
10:50 PM 57.2 °F 53.6 °F 88% 29.98 in 6.2 mi South 4.6 mph - N/A   Mostly Cloudy
11:20 PM 57.2 °F 53.6 °F 88% 29.98 in 6.2 mi South 4.6 mph - N/A   Mostly Cloudy
11:50 PM 55.4 °F 50.0 °F 82% 29.98 in 6.2 mi South 5.8 mph - N/A   Mostly Cloudy